Location: Baltimore
(39.2900°N, 76.6130°W)
Time: 08:22:03
(UTC-05:00)

ARIANE 6 FM1 Upper Stage - Visible Passes

Search period start: 13 December 2025 00:00
Search period end: 23 December 2025 00:00
Orbit: 522 x 611 km, 62.0° (Epoch: 12 December)

Date Brightness Start Highest point End Pass type
(mag) Time Alt. Az. Time Alt. Az. Time Alt. Az.
13 Dec 3.6 06:18:37 10° SSW 06:22:33 49° ESE 06:26:25 10° NE visible
14 Dec 2.7 06:18:51 10° SSW 06:22:55 79° SE 06:26:55 10° NE visible
15 Dec 6.0 04:43:53 10° SE 04:44:49 11° ESE 04:45:43 10° E visible
15 Dec 2.5 06:19:16 10° SW 06:23:19 67° NW 06:27:18 10° NNE visible
16 Dec 5.4 04:42:24 10° SSE 04:45:02 17° ESE 04:47:39 10° ENE visible
16 Dec 2.9 06:19:52 10° WSW 06:23:45 43° NW 06:27:34 10° NNE visible
17 Dec 4.7 04:44:06 22° SE 04:45:17 25° ESE 04:48:37 10° ENE visible
17 Dec 3.4 06:20:38 10° WSW 06:24:12 29° NW 06:27:44 10° NNE visible
18 Dec 4.2 04:46:36 33° E 04:46:36 33° E 04:49:19 10° NE visible
18 Dec 3.9 06:22:44 15° W 06:24:42 21° NW 06:27:47 10° N visible
19 Dec 4.7 04:48:21 22° NE 04:48:21 22° NE 04:49:49 10° NE visible
19 Dec 4.2 06:24:27 15° NW 06:25:14 15° NW 06:27:40 10° N visible
20 Dec 5.2 04:49:40 14° NNE 04:49:40 14° NNE 04:50:12 10° NE visible
20 Dec 4.6 06:25:44 11° NW 06:25:49 11° NW 06:27:08 10° NNW visible
